This is the latest recevied weather packets stored in our database for station/object F4NFR-13. If no packets are shown the sender has not sent any weather packets the latest 10 day(s).
| Time | Temp. | Humidity | Pressure | Rain* | Wind** | Luminosity | Snow |
|---|---|---|---|---|---|---|---|
| 1777994131 | 12.78° C | 64% | 1011.7 hPa | 0 mm | - | 257 W/m² | - |
| 1777993830 | 12.78° C | 64% | 1011.7 hPa | 0 mm | - | 293 W/m² | - |
| 1777993527 | 12.78° C | 66% | 1011.7 hPa | 0 mm | - | 303 W/m² | - |
| 1777993225 | 12.78° C | 65% | 1012 hPa | 0 mm | - | 311 W/m² | - |
| 1777992923 | 13.89° C | 66% | 1012 hPa | 0 mm | - | 0 W/m² | - |
| 1777992620 | 12.78° C | 64% | 1012 hPa | 0 mm | - | 320 W/m² | - |
| 1777992317 | 12.78° C | 63% | 1012 hPa | 0 mm | - | 315 W/m² | - |
| 1777992015 | 13.89° C | 64% | 1012 hPa | 0 mm | - | 305 W/m² | - |
| 1777991712 | 13.89° C | 63% | 1012 hPa | 0 mm | - | 296 W/m² | - |
| 1777991410 | 13.89° C | 61% | 1012 hPa | 0 mm | - | 270 W/m² | - |
| 1777990805 | 13.89° C | 59% | 1012 hPa | 0 mm | - | 289 W/m² | - |
| 1777990503 | 13.89° C | 54% | 1012 hPa | 0 mm | - | 289 W/m² | - |
| 1777989898 | 15° C | 57% | 1012 hPa | 0 mm | - | 0 W/m² | - |
| 1777989596 | 15° C | 55% | 1012 hPa | 0 mm | - | 0 W/m² | - |
| 1777989293 | 15° C | 50% | 1012 hPa | 0 mm | - | 0 W/m² | - |
| 1777988689 | 15° C | 49% | 1012 hPa | 0 mm | - | - | - |
| 1777988387 | 15° C | 46% | 1012 hPa | 0 mm | - | - | - |
| 1777987782 | 15° C | 54% | 1012 hPa | 0 mm | - | 0 W/m² | - |
| 1777987480 | 15° C | 58% | 1012 hPa | 0 mm | - | 73 W/m² | - |
| 1777987177 | 15° C | 60% | 1012 hPa | 0 mm | - | 0 W/m² | - |
| 1777986874 | 15° C | 59% | 1012 hPa | 0 mm | - | 0 W/m² | - |
| 1777986572 | 15° C | 59% | 1012 hPa | 0 mm | - | 0 W/m² | - |
| 1777985967 | 15° C | 62% | 1012 hPa | 0 mm | - | 150 W/m² | - |
| 1777985664 | 15° C | 62% | 1012.3 hPa | 0 mm | - | 0 W/m² | - |
| 1777985362 | 15° C | 62% | 1012.3 hPa | 0 mm | - | 0 W/m² | - |
* Rain latest hour (hover to see other rain measurements)
** Current wind speed in m/s (hover to see current wind gust speed)